FENGYUN 1C DEB, 29846

Orbit data source: Space-Track

FENGYUN 1C DEB, 29846 is space debris in SSO originally from a launch on Mon, 10 May 1999 UTC launched from the Taiyaun Space Center, China (TSC). Fengyun 1C debris stems from the Chinese weather satellite Fengyun-1C, which was intentionally destroyed by a Chinese anti-satellite missile in 2007. This event dramatically increased the amount of space debris, with thousands of trackable fragments posing hazards to satellites and human spaceflight. The Fengyun 1C debris cloud has become a focal point in discussions about space sustainability and the need for international regulations to prevent the creation of new debris.

Loading next visibility...
Identifier
29846, 1999-025EQ
Orbit
SSO
Country
Flag of CNCN / PRC
Related business
Manufacturer
Unknown
Mission
Spacecraft
Bus & Motor
Unknown
Mass
Unknown
Launch date (UTC)
1999-05-10 (27 years ago)
Launch vehicle
Unknown
Launch site
Taiyaun Space Center, China (TSC)
Object type
Payload
Rocket body
Debris
Shape & HBR
Unknown shape, 0.1 m
Radar Cross Section
Medium (>0.1 m² and <1 m²)

Expand to show TLE details & history
Last TLE update: 15 hours ago

TLE from 15 hours ago
0 FENGYUN 1C DEB
1 29846U 99025EQ  26255.11462005  .00000121  00000-0  75722-4 0  9994
2 29846  98.6206 295.0485 0083753 235.1889 147.4391 14.19235841 17350
Epoch: 2026-09-12T02:45Z
TLE epoch observation values (Epoch: 2026-09-12T02:45:03.172Z)
Latitude
22.88199°
Longitude
-100.9922°
Altitude
881.738 km
Speed
7.387 km/s
True Right ascension
19h 25m 35s
True Declination
22° 45' 40"
Sunlit
Object was in daylight at epoch
Visualization orbit readout
Latitude
Unknown
Longitude
Unknown
Altitude
Unknown
Speed
Unknown
Apparent Right ascension
Unknown
Apparent Declination
Unknown
Sunlit
N/A
Visualization observer readout
Local Sidereal Time
10:18:18
Azimuth
Unknown
Elevation
Unknown
Doppler factor
Unknown
Orbital elements
Apogee altitude
885.423 km
Perigee altitude
764.764 km
Semi-major axis
7,203.23 km
Eccentricity
0.00838
Inclination
98.6206°
RAAN
295.0485°
Arg. of periapsis
235.1889°
True anomaly
147.9511°
Mean anomaly
147.4391°
Eccentric anomaly
147.69555°
Mean motion
3.5502 °/min
Orbital period
101.4 mins
BSTAR
0.000075722
Loading maneuver chart data...
Computing Atmospheric mass density...

Documentation

Showing up to 5 results
|